• In Germany
  • List of Countries
  • For 7 days
  • Water Temperature
  • Satellite Maps
  • Weather Map
  • Weather Widgets
  • user-avatar
    Login

    Hourly Weather Townsville

    Today, 16 August, Wednesday

    Time Temperature Precipitation Wind Pressure Humidity
    00:00 +19°C° 0 mm 2 mps 755 mmHg 91%
    01:00 +18°C° 0 mm 2 mps 755 mmHg 92%
    02:00 +18°C° 0 mm 2 mps 755 mmHg 93%
    03:00 +18°C° 0 mm 2 mps 755 mmHg 93%
    04:00 +18°C° 0 mm 2 mps 754 mmHg 94%
    05:00 +18°C° 0 mm 2 mps 755 mmHg 94%
    06:00 +18°C° 0 mm 2 mps 755 mmHg 94%
    07:00 +18°C° 0 mm 2 mps 755 mmHg 94%
    08:00 +21°C° 0 mm 2 mps 755 mmHg 81%
    09:00 +25°C° 0 mm 2 mps 755 mmHg 67%
    10:00 +28°C° 0 mm 1 mps 756 mmHg 55%
    11:00 +29°C° 0 mm 2 mps 755 mmHg 50%
    12:00 +30°C° 0 mm 2 mps 755 mmHg 45%
    13:00 +31°C° 0 mm 2 mps 754 mmHg 40%
    14:00 +30°C° 0 mm 3 mps 754 mmHg 43%
    15:00 +29°C° 0 mm 3 mps 753 mmHg 47%
    16:00 +28°C° 0 mm 3 mps 753 mmHg 52%
    17:00 +26°C° 0 mm 3 mps 753 mmHg 63%
    18:00 +24°C° 0 mm 2 mps 753 mmHg 74%
    19:00 +20°C° 0 mm 2 mps 754 mmHg 84%
    20:00 +20°C° 0 mm 2 mps 754 mmHg 87%
    21:00 +20°C° 0 mm 2 mps 754 mmHg 90%
    22:00 +19°C° 0 mm 2 mps 754 mmHg 92%
    23:00 +19°C° 0 mm 2 mps 755 mmHg 93%

    Tomorrow, 17 August, Thursday

    Time Temperature Precipitation Wind Pressure Humidity
    00:00 +19°C° 0 mm 2 mps 755 mmHg 94%
    01:00 +19°C° 0 mm 2 mps 755 mmHg 94%
    02:00 +19°C° 0 mm 2 mps 754 mmHg 95%
    03:00 +19°C° 0 mm 2 mps 754 mmHg 95%
    04:00 +19°C° 0 mm 2 mps 754 mmHg 96%
    05:00 +20°C° 0 mm 1 mps 754 mmHg 96%
    06:00 +20°C° 0 mm 1 mps 755 mmHg 96%
    07:00 +20°C° 0 mm 1 mps 755 mmHg 96%
    08:00 +23°C° 0 mm 2 mps 755 mmHg 83%
    09:00 +25°C° 0 mm 2 mps 755 mmHg 69%
    10:00 +28°C° 0 mm 2 mps 755 mmHg 56%
    11:00 +29°C° 0 mm 2 mps 755 mmHg 51%
    12:00 +30°C° 0 mm 2 mps 754 mmHg 46%
    13:00 +31°C° 0 mm 2 mps 754 mmHg 42%
    14:00 +31°C° 0 mm 2 mps 753 mmHg 44%
    15:00 +30°C° 0 mm 2 mps 753 mmHg 46%
    16:00 +30°C° 0 mm 2 mps 753 mmHg 49%
    17:00 +27°C° 0 mm 2 mps 753 mmHg 62%
    18:00 +25°C° 0 mm 2 mps 753 mmHg 75%
    19:00 +22°C° 0 mm 1 mps 754 mmHg 88%
    20:00 +21°C° 0 mm 1 mps 754 mmHg 90%
    21:00 +21°C° 0 mm 1 mps 754 mmHg 91%
    22:00 +20°C° 0 mm 1 mps 755 mmHg 93%
    23:00 +20°C° 0 mm 1 mps 755 mmHg 94%

    Day after tomorrow, 18 August, Friday

    Time Temperature Precipitation Wind Pressure Humidity
    00:00 +20°C° 0 mm 1 mps 755 mmHg 95%
    01:00 +20°C° 0 mm 1 mps 755 mmHg 95%
    02:00 +20°C° 0 mm 1 mps 755 mmHg 95%
    03:00 +20°C° 0 mm 1 mps 754 mmHg 96%
    04:00 +20°C° 0 mm 1 mps 754 mmHg 96%
    05:00 +20°C° 0 mm 1 mps 755 mmHg 96%
    06:00 +20°C° 0 mm 1 mps 755 mmHg 96%
    07:00 +18°C° 0 mm 0 mps 756 mmHg 96%
    08:00 +23°C° 0 mm 1 mps 756 mmHg 82%
    09:00 +26°C° 0 mm 1 mps 756 mmHg 69%
    10:00 +29°C° 0 mm 1 mps 757 mmHg 55%
    11:00 +30°C° 0 mm 2 mps 756 mmHg 48%
    12:00 +32°C° 0 mm 2 mps 756 mmHg 42%
    13:00 +35°C° 0 mm 2 mps 755 mmHg 35%
    14:00 +34°C° 0 mm 2 mps 755 mmHg 37%
    15:00 +34°C° 0 mm 3 mps 754 mmHg 40%
    16:00 +33°C° 0 mm 3 mps 754 mmHg 43%
    17:00 +29°C° 0 mm 3 mps 754 mmHg 58%
    18:00 +26°C° 0 mm 2 mps 755 mmHg 72%
    19:00 +23°C° 0 mm 2 mps 755 mmHg 87%
    20:00 +23°C° 0 mm 2 mps 756 mmHg 90%
    21:00 +21°C° 0 mm 2 mps 756 mmHg 93%
    22:00 +21°C° 0 mm 2 mps 757 mmHg 95%
    23:00 +21°C° 0 mm 2 mps 757 mmHg 95%

    19 August, Saturday

    Time Temperature Precipitation Wind Pressure Humidity
    00:00 +20°C° 0 mm 2 mps 757 mmHg 95%
    01:00 +20°C° 0 mm 2 mps 757 mmHg 95%
    02:00 +20°C° 0 mm 2 mps 756 mmHg 95%
    03:00 +19°C° 0 mm 2 mps 756 mmHg 95%
    04:00 +19°C° 0 mm 2 mps 756 mmHg 96%
    05:00 +19°C° 0 mm 3 mps 757 mmHg 95%
    06:00 +19°C° 0 mm 3 mps 757 mmHg 94%
    07:00 +19°C° 0 mm 3 mps 758 mmHg 93%
    08:00 +21°C° 0 mm 4 mps 758 mmHg 72%
    09:00 +25°C° 0 mm 4 mps 758 mmHg 51%
    10:00 +27°C° 0 mm 5 mps 759 mmHg 31%
    11:00 +29°C° 0 mm 5 mps 758 mmHg 29%
    12:00 +30°C° 0 mm 5 mps 757 mmHg 26%
    13:00 +32°C° 0 mm 5 mps 757 mmHg 24%
    14:00 +32°C° 0 mm 5 mps 756 mmHg 23%
    15:00 +32°C° 0 mm 6 mps 756 mmHg 22%
    16:00 +32°C° 0 mm 6 mps 755 mmHg 21%
    17:00 +28°C° 0 mm 5 mps 756 mmHg 28%
    18:00 +25°C° 0 mm 4 mps 756 mmHg 36%
    19:00 +21°C° 0 mm 3 mps 757 mmHg 44%
    20:00 +20°C° 0 mm 3 mps 757 mmHg 45%
    21:00 +19°C° 0 mm 3 mps 758 mmHg 46%
    22:00 +18°C° 0 mm 3 mps 758 mmHg 47%
    23:00 +17°C° 0 mm 3 mps 758 mmHg 43%

    20 August, Sunday

    Time Temperature Precipitation Wind Pressure Humidity
    00:00 +17°C° 0 mm 3 mps 758 mmHg 38%
    01:00 +16°C° 0 mm 3 mps 757 mmHg 34%
    02:00 +15°C° 0 mm 4 mps 757 mmHg 33%
    03:00 +14°C° 0 mm 4 mps 757 mmHg 31%
    04:00 +14°C° 0 mm 5 mps 757 mmHg 29%
    05:00 +14°C° 0 mm 5 mps 758 mmHg 30%
    06:00 +13°C° 0 mm 5 mps 758 mmHg 32%
    07:00 +13°C° 0 mm 5 mps 759 mmHg 33%
    08:00 +16°C° 0 mm 5 mps 759 mmHg 28%
    09:00 +19°C° 0 mm 5 mps 759 mmHg 23%
    10:00 +22°C° 0 mm 5 mps 759 mmHg 18%
    11:00 +25°C° 0 mm 4 mps 758 mmHg 16%
    12:00 +26°C° 0 mm 4 mps 758 mmHg 15%
    13:00 +28°C° 0 mm 4 mps 757 mmHg 13%
    14:00 +28°C° 0 mm 4 mps 756 mmHg 14%
    15:00 +28°C° 0 mm 4 mps 756 mmHg 14%
    16:00 +28°C° 0 mm 4 mps 755 mmHg 15%
    17:00 +25°C° 0 mm 4 mps 756 mmHg 27%
    18:00 +21°C° 0 mm 3 mps 756 mmHg 40%
    19:00 +18°C° 0 mm 3 mps 756 mmHg 52%
    20:00 +17°C° 0 mm 3 mps 757 mmHg 61%
    21:00 +16°C° 0 mm 3 mps 757 mmHg 69%
    22:00 +16°C° 0 mm 3 mps 757 mmHg 78%
    23:00 +14°C° 0 mm 3 mps 757 mmHg 78%

    21 August, Monday

    Time Temperature Precipitation Wind Pressure Humidity
    00:00 +14°C° 0 mm 3 mps 757 mmHg 79%
    01:00 +14°C° 0 mm 3 mps 757 mmHg 79%
    02:00 +13°C° 0 mm 3 mps 757 mmHg 79%
    03:00 +13°C° 0 mm 3 mps 756 mmHg 78%
    04:00 +12°C° 0 mm 3 mps 756 mmHg 77%
    05:00 +12°C° 0 mm 3 mps 757 mmHg 76%
    06:00 +13°C° 0 mm 3 mps 757 mmHg 75%
    07:00 +13°C° 0 mm 3 mps 757 mmHg 74%
    08:00 +17°C° 0 mm 3 mps 757 mmHg 64%
    09:00 +20°C° 0 mm 3 mps 757 mmHg 55%
    10:00 +25°C° 0 mm 3 mps 757 mmHg 45%
    11:00 +26°C° 0 mm 3 mps 757 mmHg 43%
    12:00 +27°C° 0 mm 3 mps 756 mmHg 41%
    13:00 +28°C° 0 mm 3 mps 755 mmHg 38%
    14:00 +28°C° 0 mm 2 mps 755 mmHg 42%
    15:00 +27°C° 0 mm 2 mps 754 mmHg 45%
    16:00 +27°C° 0 mm 2 mps 754 mmHg 48%
    17:00 +24°C° 0 mm 2 mps 754 mmHg 58%
    18:00 +21°C° 0 mm 2 mps 755 mmHg 68%
    19:00 +20°C° 0 mm 1 mps 755 mmHg 78%
    20:00 +19°C° 0 mm 2 mps 756 mmHg 81%
    21:00 +18°C° 0 mm 2 mps 756 mmHg 83%
    22:00 +18°C° 0 mm 2 mps 756 mmHg 85%
    23:00 +18°C° 0 mm 2 mps 756 mmHg 87%
    Show more